Tracking 21473 objects as of 27-Sep-2020
HD Live streaming from Space Station
objects crossing your sky now

STARLINK-1456

Track STARLINK-1456 now!
10-day predictions
STARLINK-1456 is classified as:


NORAD ID: 45673
Int'l Code: 2020-035S
Perigee: 552.6 km
Apogee: 561.2 km
Inclination: 53.0 °
Period: 95.6 minutes
Semi major axis: 6927 km
RCS: Unknown
Launch date: June 4, 2020
Source: United States (US)
Launch site: AIR FORCE EASTERN TEST RANGE (AFETR)
aabbcc
Your satellite tracking list
Your tracking list is empty




NASA's NSSDC Master Catalog

Two Line Element Set (TLE):
1 45673U 20035S   20271.58337963 +.00009693 +00000-0 +68336-3 0  9997
2 45673 053.0026 356.0525 0006196 104.0715 223.9304 15.05581875001750
Source of the keplerian elements: AFSPC